Regional Weather Roundup
Issued by NWS

Home | Current Version | Previous Version | Text Only | Print | Product List | Glossary Off
Versions: 1 2 3 4 5 6 7 8 9 10 11 12 13 14 15 16 17 18 19 20 21 22 23 24 25 26 27 28 29 30 31 32 33 34 35 36 37 38 39 40 41 42 43 44 45 46 47 48 49 50

000
ASUS43 KMKX 282000
RWRWI

WISCONSIN REGIONAL WEATHER ROUNDUP
NATIONAL WEATHER SERVICE MILWAUKEE/SULLIVAN WI
300 PM CDT THU JUL 28 2016

NOTE: "FAIR" INDICATES FEW OR NO CLOUDS BELOW 12,000 FEET WITH NO
SIGNIFICANT WEATHER AND/OR OBSTRUCTIONS TO VISIBILITY.

WIZ001-002-006>008-014>016-023>028-282100-
NORTHWEST WISCONSIN

CITY           SKY/WX    TMP DP  RH WIND       PRES   REMARKS
SUPERIOR ARPT  CLOUDY    65  58  78 E10       30.09F
ASHLAND        CLOUDY    70  60  70 N13       30.09R
HAYWARD        CLOUDY    72  57  59 NE12      30.06S
SIREN          CLOUDY    73  55  53 NE12G17   30.05F
CUMBERLAND     MOSUNNY   72  54  53 NE14      30.03F
RICE LAKE      MOSUNNY   73  58  59 N12G18    30.04S
CHETEK         CLOUDY    73  60  63 N7        30.02F
LADYSMITH      PTSUNNY   75  59  58 N8        30.05S
EAU CLAIRE     LGT RAIN  66  64  93 NE8       30.01R FOG
MENOMONIE      CLOUDY    67  67  99 NE10      30.01F
NEW RICHMOND   CLOUDY    73  59  60 N10       30.03F
OSCEOLA        CLOUDY    73  60  63 N13G18    30.06S
$$

WIZ003>005-009-010-017-018-282100-
NORTH CENTRAL WISCONSIN

CITY           SKY/WX    TMP DP  RH WIND       PRES   REMARKS
MANITOWISH WTR PTSUNNY   72  56  57 NE8       30.05F
ARBOR VITAE    MOSUNNY   72  56  57 NE7       30.05S
WOODRUFF       MOSUNNY   72  56  57 NE7       30.05S
RHINELANDER    CLOUDY    72  57  59 NE5       30.04S
EAGLE RIVER    PTSUNNY   73  53  49 E9        30.05S
LAND O LAKES   CLOUDY    73  52  49 NE7       30.06F
PHILLIPS       PTSUNNY   73  58  58 NE10      30.04S
TOMAHAWK       CLOUDY    71  57  62 CALM      30.04S
MEDFORD        DRIZZLE   62  62  99 NE5       30.03F
MERRILL        CLOUDY    67  60  80 CALM      30.04S
$$

WIZ029-030-035-036-043>047-282100-
CENTRAL WISCONSIN

CITY           SKY/WX    TMP DP  RH WIND       PRES   REMARKS
WAUSAU         CLOUDY    62  58  86 NE6       30.01F
MOSINEE        NOT AVBL
MARSHFIELD     LGT RAIN  63  60  90 NE13G22   30.00S FOG
STEVENS POINT  CLOUDY    64  60  89 E12       30.01S
WAUPACA        CLOUDY    71  66  84 NE9       29.99S
WAUTOMA        CLOUDY    70  64  81 NE10      29.96S
WISC RAPIDS    CLOUDY    69  60  73 NE14G23   29.99F
CAMP DOUGLAS   NOT AVBL
$$

WIZ011>013-019>022-031-037>040-048>050-282100-
NORTHEAST WISCONSIN

CITY           SKY/WX    TMP DP  RH WIND       PRES   REMARKS
ANTIGO         CLOUDY    63  57  81 E8        30.04F
SHAWANO        CLOUDY    68  64  87 NE9       30.01S
OCONTO         CLOUDY    65  65 100 N5        30.00F
STURGEON BAY   CLOUDY    67  60  78 N5        30.00F
GREEN BAY      LGT RAIN  65  65 100 NE13      29.99S
MANITOWOC      NOT AVBL
APPLETON       CLOUDY    70  61  73 NE14      29.97S
CLINTONVILLE   CLOUDY    64  61  88 NE13      30.01S
OSHKOSH        CLOUDY    70  63  78 NE15G22   29.96S
$$

WIZ032>034-041-042-053>061-282100-
SOUTHWEST WISCONSIN

CITY           SKY/WX    TMP DP  RH WIND       PRES   REMARKS
LA CROSSE      CLOUDY    67  63  87 N12       29.96S
SPARTA         CLOUDY    66  64  91 N7        29.97R
VIROQUA        CLOUDY    68  68 100 N6        29.94S
BOSCOBEL       PTSUNNY   76  71  85 VRB3      29.90F
PRAIRIE DU CHI CLOUDY    74  66  75 NW7       29.90F
PLATTEVILLE    PTSUNNY   78  72  80 N13       29.90S HX  81
$$

WIZ056-057-062-063-064-067-068-282100-
SOUTH CENTRAL WISCONSIN

CITY           SKY/WX    TMP DP  RH WIND       PRES   REMARKS
REEDSBURG      CLOUDY    70  67  88 NE8       29.92F
BARABOO/DELLS  CLOUDY    70  64  82 NE12      29.92F
LONE ROCK      NOT AVBL
MINERAL POINT  PTSUNNY   79  72  78 NE8       29.91S HX  82
MADISON        CLOUDY    79  69  71 NE12      29.90S HX  81
MIDDLETON      CLOUDY    77  70  77 NE9       29.91F
WATERTOWN      CLOUDY    75  71  86 NE9       29.91F
MONROE         CLOUDY    77  68  73 NE10      29.89S
JANESVILLE     PTSUNNY   70  66  88 S12       29.90S
$$

WIZ051-052-058>065-066-070>072-282100-
SOUTHEAST WISCONSIN

CITY           SKY/WX    TMP DP  RH WIND       PRES   REMARKS
MILWAUKEE      CLOUDY    72  63  73 N16G24    29.91S
WAUKESHA       MOSUNNY   72  64  78 NE10G17   29.93F
MILWAUKEE/TIMM CLOUDY    73  61  64 NE14      29.93F
RACINE         CLOUDY    72  64  76 N14G22    29.92S
BURLINGTON     LGT RAIN  78  67  69 NE10      29.89S HX  80
KENOSHA        MOSUNNY   79  66  64 E8        29.91R HX  81
FOND DU LAC    CLOUDY    75  64  68 NE10      29.95S
SHEBOYGAN      CLOUDY    70  61  73 NE16      29.96S
WEST BEND      CLOUDY    70  61  73 NE12      29.95S
JUNEAU         CLOUDY    73  65  77 NE10G17   29.95S
$$

LSZ147-162-282100-
LAKE SUPERIOR

STATION/POSITION TIME  TEMP    WIND        PRES    WAVE
                       AIR SEA DIR/SP/G            HT/PER
                 (UTC) (F)     (DEG/KT/KT) (MB)    (FT/S)
W MID LAKE BUOY  1750   61 60   60/ 12/ 14 1019.1R   2/ 4
DEVILS ISLAND    1900   62      60/ 16/ 18 1019.6F
PORT WING        1830   63      40/ 14/ 16 1019.3S
SAXON HARBOR     1900   67      50/ 16/ 18 1018.3
$$

LMZ867-665-643>646-282100-
LAKE MICHIGAN

STATION/POSITION TIME  TEMP    WIND        PRES    WAVE
                       AIR SEA DIR/SP/G            HT/PER
                 (UTC) (F)     (DEG/KT/KT) (MB)    (FT/S)
CHAMBERS ISLAND  1900   69      10/  7/  9 1015.9F
N MID LAKE BUOY  1750   66 70   20/ 10/ 12 1015.4F   1
NORTHPORT PIER   1900   69      70/  9/ 10 1015.6F
SISTER BAY       1921   75      10/ 10/ 14   N/A
ALGOMA LAKESHORE 1913           80/ 13/ 16   N/A
KEWAUNEE LAKESHO 1900   65      20/  6/  9 1014.8F
SHEBOYGAN LAKESH 1900   61     350/ 16/ 18 1014.6S
PORT WASHINGTON  1940   71      10/  5/ 14 1014.6S
ATWATER BUOY     1900   63 62  360/ 12/ 14 1014.9F
MILWAUKEE LAKESH 1910   68     360/ 15/ 18   N/A
S MID LAKE BUOY  1750   75 77   80/  4/  4 1012.0F   1/ 4
KENOSHA   LAKESH 1900   67      30/ 16/ 17 1012.2S
$$

TC  - TEMPERATURE IN CELSIUS
VSB - VISIBILITY IN STATUTE MILES
WCI - WIND CHILL INDEX
HX  - HEAT INDEX




USA.gov is the U.S. government's official web portal to all federal, state and local government web resources and services.